sat.trackr.live / text

‹ back to catalog

GEESAT-4 06

NORAD 65124 · 2025-170F

PAYLOAD ACTIVE UNKNOWN

§ Identity

Operator
Country
PRC
Launch date
2025-08-08
Launch site
YSLA
Launch vehicle
Mass (kg)
RCS (m²)

External: N2YO · Heavens-Above · Gunter

§ Orbital elements

Epoch: 2026-09-21T21:29:25.977120Z

Period
97.02 min
Inclination
49.9834°
Eccentricity
0.0018592
Mean motion
14.84273500 rev/d
Perigee alt
602.9 km
Apogee alt
628.9 km
Semi-major
6,994.0 km
B*
1.3787e-4
RAAN
85.4407°
Arg perigee
53.0987°
Mean anomaly
307.1652°
Rev number
6,079

§ Raw data

GEESAT-4 061 65124U 25170F   26264.89543955  .00000939  00000+0  13787-3 0  99902 65124  49.9834  85.4407 0018592  53.0987 307.1652 14.84273500 60792

JSON: /api/v1/satellites/65124 · /tle

For live sub-satellite position, see the globe view (requires WebGL).

§ Visibility from observer

Set your observer location to see the next 7 days of passes ≥ 10°. The values pass through the URL so the page stays shareable.

No JS? Fill the form by hand. The geolocation button needs JavaScript.